Year,Month,Day,Hour,Minute,Value (Times are PST for temperature in C)
2014,03,20,00,00,5.60
2014,03,20,00,01,5.60
2014,03,20,00,02,5.60
2014,03,20,00,03,5.60
2014,03,20,00,04,5.60
2014,03,20,00,05,5.60
2014,03,20,00,06,5.60
2014,03,20,00,07,5.60
2014,03,20,00,08,5.50
2014,03,20,00,09,5.50
2014,03,20,00,10,5.50
2014,03,20,00,11,5.50
2014,03,20,00,12,5.50
2014,03,20,00,13,5.50
2014,03,20,00,14,5.50
2014,03,20,00,15,5.50
2014,03,20,00,16,5.40
2014,03,20,00,17,5.50
2014,03,20,00,18,5.50
2014,03,20,00,19,5.40
2014,03,20,00,20,5.50
2014,03,20,00,21,5.50
2014,03,20,00,22,5.50
2014,03,20,00,23,5.60
2014,03,20,00,24,5.60
2014,03,20,00,25,5.60
2014,03,20,00,26,5.60
2014,03,20,00,27,5.60
2014,03,20,00,28,5.60
2014,03,20,00,29,5.60
2014,03,20,00,30,5.60
2014,03,20,00,31,5.60
2014,03,20,00,32,5.60
2014,03,20,00,33,5.60
2014,03,20,00,34,5.60
2014,03,20,00,35,5.60
2014,03,20,00,36,5.60
2014,03,20,00,37,5.60
2014,03,20,00,38,5.60
2014,03,20,00,39,5.60
2014,03,20,00,40,5.60
2014,03,20,00,41,5.60
2014,03,20,00,42,5.60
2014,03,20,00,43,5.60
2014,03,20,00,44,5.60
2014,03,20,00,45,5.50
2014,03,20,00,46,5.50
2014,03,20,00,47,5.50
2014,03,20,00,48,5.50
2014,03,20,00,49,5.40
2014,03,20,00,50,5.40
2014,03,20,00,51,5.40
2014,03,20,00,52,5.30
2014,03,20,00,53,5.30
2014,03,20,00,54,5.30
2014,03,20,00,55,5.30
2014,03,20,00,56,5.20
2014,03,20,00,57,5.20
2014,03,20,00,58,5.20
2014,03,20,00,59,5.20
2014,03,20,01,00,5.20
2014,03,20,01,01,5.10
2014,03,20,01,02,5.10
2014,03,20,01,03,5.10
2014,03,20,01,04,5.10
2014,03,20,01,05,5.10
2014,03,20,01,06,5.10
2014,03,20,01,07,5.10
2014,03,20,01,08,5.10
2014,03,20,01,09,5.00
2014,03,20,01,10,5.00
2014,03,20,01,11,5.00
2014,03,20,01,12,5.00
2014,03,20,01,13,5.00
2014,03,20,01,14,5.00
2014,03,20,01,15,5.00
2014,03,20,01,16,5.10
2014,03,20,01,17,5.10
2014,03,20,01,18,5.10
2014,03,20,01,19,5.10
2014,03,20,01,20,5.10
2014,03,20,01,21,5.10
2014,03,20,01,22,5.20
2014,03,20,01,23,5.20
2014,03,20,01,24,5.20
2014,03,20,01,25,5.20
2014,03,20,01,26,5.10
2014,03,20,01,27,5.10
2014,03,20,01,28,5.10
2014,03,20,01,29,5.10
2014,03,20,01,30,5.10
2014,03,20,01,31,5.10
2014,03,20,01,32,5.10
2014,03,20,01,33,5.00
2014,03,20,01,34,5.00
2014,03,20,01,35,5.00
2014,03,20,01,36,5.10
2014,03,20,01,37,5.10
2014,03,20,01,38,5.10
2014,03,20,01,39,5.10
2014,03,20,01,40,5.10
2014,03,20,01,41,5.10
2014,03,20,01,42,5.10
2014,03,20,01,43,5.20
2014,03,20,01,44,5.20
2014,03,20,01,45,5.20
2014,03,20,01,46,5.20
2014,03,20,01,47,5.20
2014,03,20,01,48,5.20
2014,03,20,01,49,5.20
2014,03,20,01,50,5.30
2014,03,20,01,51,5.30
2014,03,20,01,52,5.30
2014,03,20,01,53,5.30
2014,03,20,01,54,5.40
2014,03,20,01,55,5.40
2014,03,20,01,56,5.40
2014,03,20,01,57,5.40
2014,03,20,01,58,5.40
2014,03,20,01,59,5.40
2014,03,20,02,00,5.40
2014,03,20,02,01,5.40
2014,03,20,02,02,5.50
2014,03,20,02,03,5.50
2014,03,20,02,04,5.50
2014,03,20,02,05,5.50
2014,03,20,02,06,5.50
2014,03,20,02,07,5.50
2014,03,20,02,08,5.50
2014,03,20,02,09,5.50
2014,03,20,02,10,5.40
2014,03,20,02,11,5.40
2014,03,20,02,12,5.40
2014,03,20,02,13,5.40
2014,03,20,02,14,5.40
2014,03,20,02,15,5.30
2014,03,20,02,16,5.30
2014,03,20,02,17,5.30
2014,03,20,02,18,5.20
2014,03,20,02,19,5.20
2014,03,20,02,20,5.10
2014,03,20,02,21,5.10
2014,03,20,02,22,5.00
2014,03,20,02,23,5.00
2014,03,20,02,24,4.90
2014,03,20,02,25,4.90
2014,03,20,02,26,4.80
2014,03,20,02,27,4.80
2014,03,20,02,28,4.70
2014,03,20,02,29,4.70
2014,03,20,02,30,4.60
2014,03,20,02,31,4.60
2014,03,20,02,32,4.50
2014,03,20,02,33,4.50
2014,03,20,02,34,4.40
2014,03,20,02,35,4.40
2014,03,20,02,36,4.40
2014,03,20,02,37,4.40
2014,03,20,02,38,4.40
2014,03,20,02,39,4.30
2014,03,20,02,40,4.30
2014,03,20,02,41,4.30
2014,03,20,02,42,4.20
2014,03,20,02,43,4.20
2014,03,20,02,44,4.20
2014,03,20,02,45,4.20
2014,03,20,02,46,4.10
2014,03,20,02,47,4.10
2014,03,20,02,48,4.10
2014,03,20,02,49,4.10
2014,03,20,02,50,4.10
2014,03,20,02,51,4.10
2014,03,20,02,52,4.10
2014,03,20,02,53,4.10
2014,03,20,02,54,4.10
2014,03,20,02,55,4.20
2014,03,20,02,56,4.20
2014,03,20,02,57,4.20
2014,03,20,02,58,4.20
2014,03,20,02,59,4.20
2014,03,20,03,00,4.20
2014,03,20,03,01,4.20
2014,03,20,03,02,4.20
2014,03,20,03,06,4.00
2014,03,20,03,07,4.00
2014,03,20,03,08,3.90
2014,03,20,03,09,3.90
2014,03,20,03,10,3.80
2014,03,20,03,11,3.80
2014,03,20,03,12,3.70
2014,03,20,03,13,3.70
2014,03,20,03,14,3.60
2014,03,20,03,15,3.60
2014,03,20,03,16,3.50
2014,03,20,03,17,3.50
2014,03,20,03,18,3.40
2014,03,20,03,19,3.30
2014,03,20,03,20,3.30
2014,03,20,03,21,3.20
2014,03,20,03,22,3.20
2014,03,20,03,23,3.20
2014,03,20,03,24,3.10
2014,03,20,03,25,3.10
2014,03,20,03,26,3.00
2014,03,20,03,27,3.00
2014,03,20,03,28,2.90
2014,03,20,03,29,2.90
2014,03,20,03,30,2.80
2014,03,20,03,31,2.80
2014,03,20,03,32,2.80
2014,03,20,03,33,2.70
2014,03,20,03,34,2.70
2014,03,20,03,35,2.70
2014,03,20,03,36,2.60
2014,03,20,03,37,2.60
2014,03,20,03,38,2.60
2014,03,20,03,39,2.60
2014,03,20,03,40,2.50
2014,03,20,03,41,2.50
2014,03,20,03,42,2.50
2014,03,20,03,43,2.40
2014,03,20,03,44,2.40
2014,03,20,03,45,2.40
2014,03,20,03,46,2.40
2014,03,20,03,47,2.40
2014,03,20,03,48,2.40
2014,03,20,03,49,2.40
2014,03,20,03,50,2.40
2014,03,20,03,51,2.40
2014,03,20,03,52,2.40
2014,03,20,03,53,2.40
2014,03,20,03,54,2.40
2014,03,20,03,55,2.40
2014,03,20,03,56,2.40
2014,03,20,03,57,2.40
2014,03,20,03,58,2.40
2014,03,20,03,59,2.40
2014,03,20,04,00,2.40
2014,03,20,04,01,2.40
2014,03,20,04,02,2.40
2014,03,20,04,03,2.30
2014,03,20,04,04,2.30
2014,03,20,04,05,2.30
2014,03,20,04,06,2.30
2014,03,20,04,07,2.30
2014,03,20,04,08,2.20
2014,03,20,04,09,2.20
2014,03,20,04,10,2.20
2014,03,20,04,11,2.20
2014,03,20,04,12,2.20
2014,03,20,04,13,2.20
2014,03,20,04,14,2.20
2014,03,20,04,15,2.10
2014,03,20,04,16,2.10
2014,03,20,04,17,2.10
2014,03,20,04,18,2.00
2014,03,20,04,19,2.10
2014,03,20,04,20,2.00
2014,03,20,04,21,2.00
2014,03,20,04,22,2.00
2014,03,20,04,23,2.00
2014,03,20,04,24,2.00
2014,03,20,04,25,2.00
2014,03,20,04,26,2.00
2014,03,20,04,27,2.00
2014,03,20,04,28,2.00
2014,03,20,04,29,2.00
2014,03,20,04,30,1.90
2014,03,20,04,31,1.90
2014,03,20,04,32,1.90
2014,03,20,04,33,1.90
2014,03,20,04,34,1.90
2014,03,20,04,35,1.90
2014,03,20,04,36,1.90
2014,03,20,04,37,1.90
2014,03,20,04,38,1.80
2014,03,20,04,39,1.80
2014,03,20,04,40,1.80
2014,03,20,04,41,1.80
2014,03,20,04,42,1.80
2014,03,20,04,43,1.70
2014,03,20,04,44,1.70
2014,03,20,04,45,1.70
2014,03,20,04,46,1.70
2014,03,20,04,47,1.60
2014,03,20,04,48,1.60
2014,03,20,04,49,1.60
2014,03,20,04,50,1.60
2014,03,20,04,51,1.60
2014,03,20,04,52,1.50
2014,03,20,04,53,1.50
2014,03,20,04,54,1.50
2014,03,20,04,55,1.40
2014,03,20,04,56,1.40
2014,03,20,04,57,1.40
2014,03,20,04,58,1.40
2014,03,20,04,59,1.40
2014,03,20,05,00,1.40
2014,03,20,05,01,1.40
2014,03,20,05,02,1.40
2014,03,20,05,03,1.40
2014,03,20,05,04,1.40
2014,03,20,05,05,1.30
2014,03,20,05,06,1.30
2014,03,20,05,07,1.30
2014,03,20,05,08,1.30
2014,03,20,05,09,1.30
2014,03,20,05,10,1.30
2014,03,20,05,11,1.30
2014,03,20,05,12,1.30
2014,03,20,05,13,1.30
2014,03,20,05,14,1.30
2014,03,20,05,15,1.30
2014,03,20,05,16,1.30
2014,03,20,05,17,1.30
2014,03,20,05,18,1.30
2014,03,20,05,19,1.30
2014,03,20,05,20,1.30
2014,03,20,05,21,1.20
2014,03,20,05,22,1.20
2014,03,20,05,23,1.20
2014,03,20,05,24,1.20
2014,03,20,05,25,1.20
2014,03,20,05,26,1.20
2014,03,20,05,27,1.20
2014,03,20,05,28,1.20
2014,03,20,05,29,1.20
2014,03,20,05,30,1.20
2014,03,20,05,31,1.10
2014,03,20,05,32,1.10
2014,03,20,05,33,1.10
2014,03,20,05,34,1.10
2014,03,20,05,35,1.10
2014,03,20,05,36,1.10
2014,03,20,05,37,1.10
2014,03,20,05,38,1.10
2014,03,20,05,39,1.10
2014,03,20,05,40,1.10
2014,03,20,05,41,1.10
2014,03,20,05,42,1.10
2014,03,20,05,43,1.00
2014,03,20,05,44,1.00
2014,03,20,05,45,1.00
2014,03,20,05,46,1.00
2014,03,20,05,47,0.90
2014,03,20,05,48,0.90
2014,03,20,05,49,0.90
2014,03,20,05,50,0.90
2014,03,20,05,51,0.90
2014,03,20,05,52,0.90
2014,03,20,05,53,0.90
2014,03,20,05,54,0.90
2014,03,20,05,55,0.90
2014,03,20,05,56,0.90
2014,03,20,05,57,0.80
2014,03,20,05,58,0.80
2014,03,20,05,59,0.80
2014,03,20,06,00,0.80
2014,03,20,06,01,0.80
2014,03,20,06,02,0.80
2014,03,20,06,03,0.70
2014,03,20,06,04,0.70
2014,03,20,06,05,0.70
2014,03,20,06,06,0.70
2014,03,20,06,07,0.70
2014,03,20,06,08,0.60
2014,03,20,06,09,0.60
2014,03,20,06,10,0.60
2014,03,20,06,11,0.60
2014,03,20,06,12,0.50
2014,03,20,06,13,0.50
2014,03,20,06,14,0.50
2014,03,20,06,15,0.50
2014,03,20,06,16,0.40
2014,03,20,06,17,0.40
2014,03,20,06,18,0.40
2014,03,20,06,19,0.40
2014,03,20,06,20,0.40
2014,03,20,06,21,0.40
2014,03,20,06,22,0.40
2014,03,20,06,23,0.30
2014,03,20,06,24,0.30
2014,03,20,06,25,0.30
2014,03,20,06,26,0.30
2014,03,20,06,27,0.30
2014,03,20,06,28,0.20
2014,03,20,06,29,0.20
2014,03,20,06,30,0.20
2014,03,20,06,31,0.20
2014,03,20,06,32,0.20
2014,03,20,06,33,0.20
2014,03,20,06,34,0.20
2014,03,20,06,35,0.20
2014,03,20,06,36,0.10
2014,03,20,06,37,0.10
2014,03,20,06,38,0.10
2014,03,20,06,39,0.10
2014,03,20,06,40,0.10
2014,03,20,06,41,0.00
2014,03,20,06,42,0.00
2014,03,20,06,43,0.00
2014,03,20,06,44,0.00
2014,03,20,06,45,-0.10
2014,03,20,06,46,-0.10
2014,03,20,06,47,-0.10
2014,03,20,06,48,-0.10
2014,03,20,06,49,-0.10
2014,03,20,06,50,-0.10
2014,03,20,06,51,-0.10
2014,03,20,06,52,-0.20
2014,03,20,06,53,-0.20
2014,03,20,06,54,-0.20
2014,03,20,06,55,-0.20
2014,03,20,06,56,-0.20
2014,03,20,06,57,-0.30
2014,03,20,06,58,-0.30
2014,03,20,06,59,-0.30
2014,03,20,07,00,-0.30
2014,03,20,07,01,-0.30
2014,03,20,07,02,-0.30
2014,03,20,07,03,-0.30
2014,03,20,07,04,-0.30
2014,03,20,07,05,-0.30
2014,03,20,07,06,-0.30
2014,03,20,07,07,-0.30
2014,03,20,07,08,-0.30
2014,03,20,07,09,-0.30
2014,03,20,07,10,-0.40
2014,03,20,07,11,-0.40
2014,03,20,07,12,-0.40
2014,03,20,07,13,-0.40
2014,03,20,07,14,-0.40
2014,03,20,07,15,-0.40
2014,03,20,07,16,-0.40
2014,03,20,07,17,-0.40
2014,03,20,07,18,-0.40
2014,03,20,07,19,-0.40
2014,03,20,07,20,-0.40
2014,03,20,07,21,-0.40
2014,03,20,07,22,-0.50
2014,03,20,07,23,-0.50
2014,03,20,07,24,-0.50
2014,03,20,07,25,-0.50
2014,03,20,07,26,-0.50
2014,03,20,07,27,-0.60
2014,03,20,07,28,-0.60
2014,03,20,07,29,-0.60
2014,03,20,07,30,-0.60
2014,03,20,07,31,-0.60
2014,03,20,07,32,-0.60
2014,03,20,07,33,-0.60
2014,03,20,07,34,-0.60
2014,03,20,07,35,-0.60
2014,03,20,07,36,-0.60
2014,03,20,07,37,-0.60
2014,03,20,07,38,-0.60
2014,03,20,07,39,-0.60
2014,03,20,07,40,-0.60
2014,03,20,07,41,-0.60
2014,03,20,07,42,-0.60
2014,03,20,07,43,-0.60
2014,03,20,07,44,-0.60
2014,03,20,07,45,-0.60
2014,03,20,07,46,-0.60
2014,03,20,07,47,-0.60
2014,03,20,07,48,-0.60
2014,03,20,07,49,-0.60
2014,03,20,07,50,-0.60
2014,03,20,07,51,-0.60
2014,03,20,07,52,-0.50
2014,03,20,07,53,-0.60
2014,03,20,07,54,-0.50
2014,03,20,07,55,-0.50
2014,03,20,07,56,-0.50
2014,03,20,07,57,-0.50
2014,03,20,07,58,-0.40
2014,03,20,07,59,-0.40
2014,03,20,08,00,-0.40
2014,03,20,08,01,-0.40
2014,03,20,08,02,-0.40
2014,03,20,08,03,-0.30
2014,03,20,08,04,-0.30
2014,03,20,08,05,-0.30
2014,03,20,08,06,-0.30
2014,03,20,08,07,-0.30
2014,03,20,08,08,-0.30
2014,03,20,08,09,-0.20
2014,03,20,08,10,-0.20
2014,03,20,08,11,-0.20
2014,03,20,08,12,-0.10
2014,03,20,08,13,-0.10
2014,03,20,08,14,0.00
2014,03,20,08,15,0.00
2014,03,20,08,16,0.10
2014,03,20,08,17,0.10
2014,03,20,08,18,0.10
2014,03,20,08,19,0.10
2014,03,20,08,20,0.10
2014,03,20,08,21,0.10
2014,03,20,08,22,0.10
2014,03,20,08,23,0.20
2014,03,20,08,24,0.20
2014,03,20,08,25,0.20
2014,03,20,08,26,0.20
2014,03,20,08,27,0.30
2014,03,20,08,28,0.30
2014,03,20,08,29,0.30
2014,03,20,08,30,0.40
2014,03,20,08,31,0.40
2014,03,20,08,32,0.50
2014,03,20,08,33,0.50
2014,03,20,08,34,0.60
2014,03,20,08,35,0.60
2014,03,20,08,36,0.70
2014,03,20,08,37,0.80
2014,03,20,08,38,0.80
2014,03,20,08,39,0.90
2014,03,20,08,40,1.00
2014,03,20,08,41,1.00
2014,03,20,08,42,1.10
2014,03,20,08,43,1.20
2014,03,20,08,44,1.30
2014,03,20,08,45,1.40
2014,03,20,08,46,1.50
2014,03,20,08,47,1.70
2014,03,20,08,48,1.80
2014,03,20,08,49,1.90
2014,03,20,08,50,2.00
2014,03,20,08,51,2.10
2014,03,20,08,52,2.20
2014,03,20,08,53,2.30
2014,03,20,08,54,2.40
2014,03,20,08,55,2.50
2014,03,20,08,56,2.70
2014,03,20,08,57,2.80
2014,03,20,08,58,2.90
2014,03,20,08,59,3.00
2014,03,20,09,00,3.10
2014,03,20,09,01,3.20
2014,03,20,09,02,3.30
2014,03,20,09,03,3.30
2014,03,20,09,04,3.40
2014,03,20,09,05,3.50
2014,03,20,09,06,3.50
2014,03,20,09,07,3.60
2014,03,20,09,08,3.60
2014,03,20,09,09,3.70
2014,03,20,09,10,3.80
2014,03,20,09,11,3.80
2014,03,20,09,12,3.90
2014,03,20,09,13,3.90
2014,03,20,09,14,4.00
2014,03,20,09,15,4.00
2014,03,20,09,16,4.10
2014,03,20,09,17,4.10
2014,03,20,09,18,4.20
2014,03,20,09,19,4.20
2014,03,20,09,20,4.30
2014,03,20,09,21,4.30
2014,03,20,09,22,4.30
2014,03,20,09,23,4.40
2014,03,20,09,24,4.50
2014,03,20,09,25,4.50
2014,03,20,09,26,4.60
2014,03,20,09,27,4.60
2014,03,20,09,28,4.70
2014,03,20,09,29,4.80
2014,03,20,09,30,4.80
2014,03,20,09,31,4.90
2014,03,20,09,32,5.00
2014,03,20,09,33,5.00
2014,03,20,09,34,5.10
2014,03,20,09,35,5.20
2014,03,20,09,36,5.20
2014,03,20,09,37,5.20
2014,03,20,09,38,5.20
2014,03,20,09,39,5.20
2014,03,20,09,40,5.20
2014,03,20,09,41,5.20
2014,03,20,09,42,5.20
2014,03,20,09,43,5.30
2014,03,20,09,44,5.30
2014,03,20,09,45,5.30
2014,03,20,09,46,5.30
2014,03,20,09,47,5.30
2014,03,20,09,48,5.30
2014,03,20,09,49,5.40
2014,03,20,09,50,5.40
2014,03,20,09,51,5.40
2014,03,20,09,52,5.50
2014,03,20,09,53,5.50
2014,03,20,09,54,5.60
2014,03,20,09,55,5.60
2014,03,20,09,56,5.70
2014,03,20,09,57,5.70
2014,03,20,09,58,5.70
2014,03,20,09,59,5.80
2014,03,20,10,00,5.80
2014,03,20,10,01,5.90
2014,03,20,10,02,6.00
2014,03,20,10,03,6.00
2014,03,20,10,04,6.10
2014,03,20,10,05,6.10
2014,03,20,10,06,6.20
2014,03,20,10,07,6.20
2014,03,20,10,08,6.20
2014,03,20,10,09,6.30
2014,03,20,10,10,6.30
2014,03,20,10,11,6.40
2014,03,20,10,12,6.50
2014,03,20,10,13,6.50
2014,03,20,10,14,6.60
2014,03,20,10,15,6.70
2014,03,20,10,16,6.80
2014,03,20,10,17,6.80
2014,03,20,10,18,6.90
2014,03,20,10,19,6.90
2014,03,20,10,20,7.00
2014,03,20,10,21,7.00
2014,03,20,10,22,7.00
2014,03,20,10,23,7.00
2014,03,20,10,24,7.00
2014,03,20,10,25,6.90
2014,03,20,10,26,6.90
2014,03,20,10,27,6.90
2014,03,20,10,28,6.90
2014,03,20,10,29,6.90
2014,03,20,10,30,6.90
2014,03,20,10,31,7.00
2014,03,20,10,32,7.10
2014,03,20,10,33,7.10
2014,03,20,10,34,7.20
2014,03,20,10,35,7.20
2014,03,20,10,36,7.20
2014,03,20,10,37,7.30
2014,03,20,10,38,7.30
2014,03,20,10,39,7.30
2014,03,20,10,40,7.30
2014,03,20,10,41,7.30
2014,03,20,10,42,7.30
2014,03,20,10,43,7.30
2014,03,20,10,44,7.30
2014,03,20,10,45,7.40
2014,03,20,10,46,7.40
2014,03,20,10,47,7.40
2014,03,20,10,48,7.40
2014,03,20,10,49,7.40
2014,03,20,10,50,7.40
2014,03,20,10,51,7.40
2014,03,20,10,52,7.50
2014,03,20,10,53,7.50
2014,03,20,10,54,7.50
2014,03,20,10,55,7.50
2014,03,20,10,56,7.50
2014,03,20,10,57,7.60
2014,03,20,10,58,7.60
2014,03,20,10,59,7.60
2014,03,20,11,00,7.70
2014,03,20,11,01,7.70
2014,03,20,11,02,7.70
2014,03,20,11,03,7.70
2014,03,20,11,04,7.70
2014,03,20,11,05,7.70
2014,03,20,11,06,7.70
2014,03,20,11,07,7.60
2014,03,20,11,08,7.60
2014,03,20,11,09,7.60
2014,03,20,11,10,7.60
2014,03,20,11,11,7.70
2014,03,20,11,12,7.80
2014,03,20,11,13,7.80
2014,03,20,11,14,7.80
2014,03,20,11,15,7.80
2014,03,20,11,16,7.80
2014,03,20,11,17,7.80
2014,03,20,11,18,7.80
2014,03,20,11,19,7.90
2014,03,20,11,20,7.90
2014,03,20,11,21,8.00
2014,03,20,11,22,8.00
2014,03,20,11,23,8.00
2014,03,20,11,24,8.10
2014,03,20,11,25,8.10
2014,03,20,11,26,8.10
2014,03,20,11,27,8.10
2014,03,20,11,28,8.10
2014,03,20,11,29,8.00
2014,03,20,11,30,8.00
2014,03,20,11,31,7.90
2014,03,20,11,32,8.00
2014,03,20,11,33,8.00
2014,03,20,11,34,8.00
2014,03,20,11,35,8.10
2014,03,20,11,36,8.10
2014,03,20,11,37,8.10
2014,03,20,11,38,8.10
2014,03,20,11,39,8.10
2014,03,20,11,40,8.10
2014,03,20,11,41,8.00
2014,03,20,11,42,8.00
2014,03,20,11,43,8.00
2014,03,20,11,44,8.00
2014,03,20,11,45,8.00
2014,03,20,11,46,8.10
2014,03,20,11,47,8.10
2014,03,20,11,48,8.20
2014,03,20,11,49,8.20
2014,03,20,11,50,8.20
2014,03,20,11,51,8.20
2014,03,20,11,52,8.10
2014,03,20,11,53,8.10
2014,03,20,11,54,8.00
2014,03,20,11,55,8.00
2014,03,20,11,56,7.90
2014,03,20,11,57,7.90
2014,03,20,11,58,7.80
2014,03,20,11,59,7.70
2014,03,20,12,00,7.60
2014,03,20,12,01,7.50
2014,03,20,12,02,7.40
2014,03,20,12,03,7.30
2014,03,20,12,04,7.30
2014,03,20,12,05,7.20
2014,03,20,12,06,7.20
2014,03,20,12,07,7.20
2014,03,20,12,08,7.20
2014,03,20,12,09,7.10
2014,03,20,12,10,7.10
2014,03,20,12,11,7.10
2014,03,20,12,12,7.10
2014,03,20,12,13,7.20
2014,03,20,12,14,7.20
2014,03,20,12,15,7.20
2014,03,20,12,16,7.20
2014,03,20,12,17,7.30
2014,03,20,12,18,7.30
2014,03,20,12,19,7.40
2014,03,20,12,20,7.50
2014,03,20,12,21,7.50
2014,03,20,12,22,7.60
2014,03,20,12,23,7.60
2014,03,20,12,24,7.60
2014,03,20,12,25,7.70
2014,03,20,12,26,7.70
2014,03,20,12,27,7.70
2014,03,20,12,28,7.80
2014,03,20,12,29,7.80
2014,03,20,12,30,7.80
2014,03,20,12,31,7.90
2014,03,20,12,32,7.90
2014,03,20,12,33,7.90
2014,03,20,12,34,8.00
2014,03,20,12,35,8.10
2014,03,20,12,36,8.10
2014,03,20,12,37,8.20
2014,03,20,12,38,8.30
2014,03,20,12,39,8.40
2014,03,20,12,40,8.50
2014,03,20,12,41,8.50
2014,03,20,12,42,8.50
2014,03,20,12,43,8.50
2014,03,20,12,44,8.50
2014,03,20,12,45,8.50
2014,03,20,12,46,8.50
2014,03,20,12,47,8.50
2014,03,20,12,48,8.40
2014,03,20,12,49,8.50
2014,03,20,12,50,8.50
2014,03,20,12,51,8.50
2014,03,20,12,52,8.50
2014,03,20,12,53,8.40
2014,03,20,12,54,8.40
2014,03,20,12,55,8.40
2014,03,20,12,56,8.40
2014,03,20,12,57,8.40
2014,03,20,12,58,8.40
2014,03,20,12,59,8.30
2014,03,20,13,00,8.30
2014,03,20,13,01,8.30
2014,03,20,13,02,8.20
2014,03,20,13,03,8.20
2014,03,20,13,04,8.20
2014,03,20,13,05,8.20
2014,03,20,13,06,8.20
2014,03,20,13,07,8.20
2014,03,20,13,08,8.20
2014,03,20,13,09,8.20
2014,03,20,13,10,8.20
2014,03,20,13,11,8.20
2014,03,20,13,12,8.20
2014,03,20,13,13,8.20
2014,03,20,13,14,8.20
2014,03,20,13,15,8.20
2014,03,20,13,16,8.20
2014,03,20,13,17,8.10
2014,03,20,13,18,8.10
2014,03,20,13,19,8.10
2014,03,20,13,20,8.10
2014,03,20,13,21,8.10
2014,03,20,13,22,8.10
2014,03,20,13,23,8.00
2014,03,20,13,24,8.00
2014,03,20,13,25,8.00
2014,03,20,13,26,8.00
2014,03,20,13,27,8.00
2014,03,20,13,28,8.10
2014,03,20,13,29,8.10
2014,03,20,13,30,8.10
2014,03,20,13,31,8.10
2014,03,20,13,32,8.10
2014,03,20,13,33,8.20
2014,03,20,13,34,8.20
2014,03,20,13,35,8.20
2014,03,20,13,36,8.30
2014,03,20,13,37,8.30
2014,03,20,13,38,8.30
2014,03,20,13,39,8.40
2014,03,20,13,40,8.40
2014,03,20,13,41,8.40
2014,03,20,13,42,8.40
2014,03,20,13,43,8.40
2014,03,20,13,44,8.40
2014,03,20,13,45,8.40
2014,03,20,13,46,8.50
2014,03,20,13,47,8.50
2014,03,20,13,48,8.60
2014,03,20,13,49,8.60
2014,03,20,13,50,8.60
2014,03,20,13,51,8.60
2014,03,20,13,52,8.60
2014,03,20,13,53,8.60
2014,03,20,13,54,8.60
2014,03,20,13,55,8.60
2014,03,20,13,56,8.60
2014,03,20,13,57,8.60
2014,03,20,13,58,8.60
2014,03,20,13,59,8.60
2014,03,20,14,00,8.60
2014,03,20,14,01,8.60
2014,03,20,14,02,8.60
2014,03,20,14,03,8.50
2014,03,20,14,04,8.50
2014,03,20,14,05,8.50
2014,03,20,14,06,8.50
2014,03,20,14,07,8.50
2014,03,20,14,08,8.40
2014,03,20,14,09,8.40
2014,03,20,14,10,8.50
2014,03,20,14,11,8.50
2014,03,20,14,12,8.50
2014,03,20,14,13,8.50
2014,03,20,14,14,8.60
2014,03,20,14,15,8.60
2014,03,20,14,16,8.70
2014,03,20,14,17,8.70
2014,03,20,14,18,8.80
2014,03,20,14,19,8.80
2014,03,20,14,20,8.80
2014,03,20,14,21,8.90
2014,03,20,14,22,8.90
2014,03,20,14,23,9.00
2014,03,20,14,24,9.10
2014,03,20,14,25,9.10
2014,03,20,14,26,9.20
2014,03,20,14,27,9.30
2014,03,20,14,28,9.30
2014,03,20,14,29,9.30
2014,03,20,14,30,9.30
2014,03,20,14,31,9.30
2014,03,20,14,32,9.30
2014,03,20,14,33,9.30
2014,03,20,14,34,9.30
2014,03,20,14,35,9.30
2014,03,20,14,36,9.30
2014,03,20,14,37,9.30
2014,03,20,14,38,9.30
2014,03,20,14,39,9.30
2014,03,20,14,40,9.30
2014,03,20,14,41,9.30
2014,03,20,14,42,9.30
2014,03,20,14,43,9.30
2014,03,20,14,44,9.40
2014,03,20,14,45,9.40
2014,03,20,14,46,9.40
2014,03,20,14,47,9.50
2014,03,20,14,48,9.50
2014,03,20,14,49,9.50
2014,03,20,14,50,9.60
2014,03,20,14,51,9.60
2014,03,20,14,52,9.60
2014,03,20,14,53,9.70
2014,03,20,14,54,9.70
2014,03,20,14,55,9.70
2014,03,20,14,56,9.80
2014,03,20,14,57,9.80
2014,03,20,14,58,9.90
2014,03,20,14,59,9.90
2014,03,20,15,00,10.00
2014,03,20,15,01,10.00
2014,03,20,15,02,10.10
2014,03,20,15,03,10.10
2014,03,20,15,04,10.10
2014,03,20,15,05,10.10
2014,03,20,15,06,10.10
2014,03,20,15,07,10.00
2014,03,20,15,08,9.90
2014,03,20,15,09,9.90
2014,03,20,15,10,9.80
2014,03,20,15,11,9.80
2014,03,20,15,12,9.80
2014,03,20,15,13,9.80
2014,03,20,15,14,9.90
2014,03,20,15,15,9.90
2014,03,20,15,16,10.00
2014,03,20,15,17,10.10
2014,03,20,15,18,10.20
2014,03,20,15,19,10.30
2014,03,20,15,20,10.30
2014,03,20,15,21,10.30
2014,03,20,15,22,10.30
2014,03,20,15,23,10.30
2014,03,20,15,24,10.30
2014,03,20,15,25,10.30
2014,03,20,15,26,10.40
2014,03,20,15,27,10.50
2014,03,20,15,28,10.50
2014,03,20,15,29,10.60
2014,03,20,15,30,10.60
2014,03,20,15,31,10.60
2014,03,20,15,32,10.60
2014,03,20,15,33,10.60
2014,03,20,15,34,10.60
2014,03,20,15,35,10.60
2014,03,20,15,36,10.60
2014,03,20,15,37,10.60
2014,03,20,15,38,10.60
2014,03,20,15,39,10.60
2014,03,20,15,40,10.60
2014,03,20,15,41,10.60
2014,03,20,15,42,10.60
2014,03,20,15,43,10.60
2014,03,20,15,44,10.50
2014,03,20,15,45,10.50
2014,03,20,15,46,10.40
2014,03,20,15,47,10.40
2014,03,20,15,48,10.30
2014,03,20,15,49,10.30
2014,03,20,15,50,10.30
2014,03,20,15,51,10.40
2014,03,20,15,52,10.40
2014,03,20,15,53,10.40
2014,03,20,15,54,10.40
2014,03,20,15,55,10.40
2014,03,20,15,56,10.40
2014,03,20,15,57,10.40
2014,03,20,15,58,10.40
2014,03,20,15,59,10.40
2014,03,20,16,00,10.40
2014,03,20,16,01,10.50
2014,03,20,16,02,10.50
2014,03,20,16,03,10.60
2014,03,20,16,04,10.70
2014,03,20,16,05,10.70
2014,03,20,16,06,10.60
2014,03,20,16,07,10.60
2014,03,20,16,08,10.50
2014,03,20,16,09,10.40
2014,03,20,16,10,10.40
2014,03,20,16,11,10.30
2014,03,20,16,12,10.30
2014,03,20,16,13,10.20
2014,03,20,16,14,10.20
2014,03,20,16,15,10.20
2014,03,20,16,16,10.10
2014,03,20,16,17,10.10
2014,03,20,16,18,10.00
2014,03,20,16,19,10.00
2014,03,20,16,20,9.90
2014,03,20,16,21,9.90
2014,03,20,16,22,9.90
2014,03,20,16,23,9.90
2014,03,20,16,24,9.90
2014,03,20,16,25,10.00
2014,03,20,16,26,10.00
2014,03,20,16,27,10.10
2014,03,20,16,28,10.20
2014,03,20,16,29,10.20
2014,03,20,16,30,10.20
2014,03,20,16,31,10.20
2014,03,20,16,32,10.30
2014,03,20,16,33,10.30
2014,03,20,16,34,10.30
2014,03,20,16,35,10.30
2014,03,20,16,36,10.30
2014,03,20,16,37,10.30
2014,03,20,16,38,10.30
2014,03,20,16,39,10.40
2014,03,20,16,40,10.40
2014,03,20,16,41,10.40
2014,03,20,16,42,10.40
2014,03,20,16,43,10.50
2014,03,20,16,44,10.50
2014,03,20,16,45,10.60
2014,03,20,16,46,10.50
2014,03,20,16,47,10.50
2014,03,20,16,48,10.50
2014,03,20,16,49,10.40
2014,03,20,16,50,10.40
2014,03,20,16,51,10.30
2014,03,20,16,52,10.30
2014,03,20,16,53,10.40
2014,03,20,16,54,10.40
2014,03,20,16,55,10.30
2014,03,20,16,56,10.20
2014,03,20,16,57,10.10
2014,03,20,16,58,10.00
2014,03,20,16,59,9.90
2014,03,20,17,00,9.90
2014,03,20,17,01,9.80
2014,03,20,17,02,9.70
2014,03,20,17,03,9.60
2014,03,20,17,04,9.50
2014,03,20,17,05,9.50
2014,03,20,17,06,9.40
2014,03,20,17,07,9.40
2014,03,20,17,08,9.30
2014,03,20,17,09,9.30
2014,03,20,17,10,9.30
2014,03,20,17,11,9.30
2014,03,20,17,12,9.20
2014,03,20,17,13,9.20
2014,03,20,17,14,9.20
2014,03,20,17,15,9.20
2014,03,20,17,16,9.20
2014,03,20,17,17,9.20
2014,03,20,17,18,9.20
2014,03,20,17,19,9.20
2014,03,20,17,20,9.30
2014,03,20,17,21,9.30
2014,03,20,17,22,9.30
2014,03,20,17,23,9.40
2014,03,20,17,24,9.40
2014,03,20,17,25,9.40
2014,03,20,17,26,9.40
2014,03,20,17,27,9.40
2014,03,20,17,28,9.50
2014,03,20,17,29,9.50
2014,03,20,17,30,9.50
2014,03,20,17,31,9.50
2014,03,20,17,32,9.50
2014,03,20,17,33,9.50
2014,03,20,17,34,9.40
2014,03,20,17,35,9.40
2014,03,20,17,36,9.40
2014,03,20,17,37,9.40
2014,03,20,17,38,9.40
2014,03,20,17,39,9.40
2014,03,20,17,40,9.30
2014,03,20,17,41,9.30
2014,03,20,17,42,9.20
2014,03,20,17,43,9.10
2014,03,20,17,44,9.00
2014,03,20,17,45,9.00
2014,03,20,17,46,8.90
2014,03,20,17,47,8.80
2014,03,20,17,48,8.80
2014,03,20,17,49,8.70
2014,03,20,17,50,8.60
2014,03,20,17,51,8.50
2014,03,20,17,52,8.40
2014,03,20,17,53,8.30
2014,03,20,17,54,8.20
2014,03,20,17,55,8.10
2014,03,20,17,56,8.00
2014,03,20,17,57,7.90
2014,03,20,17,58,7.80
2014,03,20,17,59,7.80
2014,03,20,18,00,7.70